This is the latest recevied weather packets stored in our database for station/object KB2FWP. If no packets are shown the sender has not sent any weather packets the latest 10 day(s).
| Time | Temp. | Humidity | Pressure | Rain* | Wind** | Luminosity | Snow |
|---|---|---|---|---|---|---|---|
| 1787860856 | 23.33° C | 92% | 1017.5 hPa | 0.51 mm | - | - | - |
| 1787859958 | 23.33° C | 94% | 1017.4 hPa | 1.02 mm | - | - | - |
| 1787859052 | 23.33° C | 93% | 1017.8 hPa | 1.02 mm | - | - | - |
| 1787858157 | 23.33° C | 93% | 1018.9 hPa | 0.76 mm | - | - | - |
| 1787857254 | 23.33° C | 92% | 1018.8 hPa | 0.51 mm | - | - | - |
| 1787856347 | 23.33° C | 91% | 1019 hPa | 0 mm | - | - | - |
| 1787855446 | 23.89° C | 90% | 1018.5 hPa | 0 mm | - | - | - |
| 1787854543 | 23.89° C | 89% | 1018.4 hPa | 0 mm | - | - | - |
| 1787853645 | 23.89° C | 88% | 1018.5 hPa | 0 mm | - | - | - |
| 1787852739 | 24.44° C | 87% | 1018.4 hPa | 0 mm | - | - | - |
| 1787851840 | 24.44° C | 85% | 1018.1 hPa | 0 mm | - | - | - |
| 1787850958 | 25° C | 84% | 1018 hPa | 0 mm | - | - | - |
| 1787850038 | 25° C | 84% | 1018.1 hPa | 0 mm | - | - | - |
| 1787849148 | 25° C | 84% | 1018 hPa | 0 mm | - | - | - |
| 1787848234 | 25° C | 83% | 1018.4 hPa | 0 mm | - | - | - |
| 1787847330 | 25° C | 84% | 1018.6 hPa | 0 mm | - | - | - |
| 1787846432 | 25° C | 84% | 1018.8 hPa | 0 mm | - | - | - |
| 1787845538 | 25° C | 84% | 1018.8 hPa | 0 mm | - | - | - |
| 1787844629 | 25.56° C | 83% | 1019 hPa | 0 mm | - | - | - |
| 1787843733 | 25.56° C | 83% | 1018.9 hPa | 0 mm | - | - | - |
| 1787842828 | 26.11° C | 83% | 1019 hPa | 0 mm | - | - | - |
| 1787841927 | 26.11° C | 82% | 1019.2 hPa | 0 mm | - | - | - |
| 1787841025 | 25.56° C | 84% | 1019.1 hPa | 0 mm | - | - | - |
| 1787840123 | 25.56° C | 84% | 1019.2 hPa | 0 mm | - | - | - |
| 1787839221 | 25° C | 85% | 1019.1 hPa | 0 mm | - | - | - |
* Rain latest hour (hover to see other rain measurements)
** Current wind speed in m/s (hover to see current wind gust speed)